TimePDT,TemperatureF,Dew PointF,Humidity,Sea Level PressureIn,VisibilityMPH,Wind Direction,Wind SpeedMPH,Gust SpeedMPH,PrecipitationIn,Events,Conditions,WindDirDegrees,DateUTC
12:53 AM,52.0,35.1,53,30.01,10.0,WSW,6.9,-,N/A,,Clear,250,2013-04-28 07:53:00
1:53 AM,51.1,36.0,56,30.03,10.0,SSW,9.2,-,N/A,,Mostly Cloudy,210,2013-04-28 08:53:00
2:53 AM,50.0,35.1,57,30.03,10.0,WSW,5.8,-,N/A,,Overcast,240,2013-04-28 09:53:00
3:53 AM,48.0,36.0,63,30.04,10.0,Variable,3.5,-,N/A,,Mostly Cloudy,0,2013-04-28 10:53:00
4:53 AM,46.9,36.0,66,30.04,10.0,SW,6.9,-,N/A,,Overcast,220,2013-04-28 11:53:00
5:53 AM,46.4,35.6,66,30.05,10.0,SW,4.6,-,N/A,,Overcast,230,2013-04-28 12:53:00
6:53 AM,48.0,36.0,63,30.05,10.0,SW,3.5,-,N/A,,Overcast,230,2013-04-28 13:53:00
7:53 AM,48.9,36.0,61,30.06,10.0,SSW,6.9,-,N/A,,Mostly Cloudy,200,2013-04-28 14:53:00
8:53 AM,52.0,36.0,54,30.06,10.0,SSW,13.8,18.4,N/A,,Mostly Cloudy,210,2013-04-28 15:53:00
9:53 AM,55.9,36.0,47,30.06,10.0,SSW,11.5,-,N/A,,Mostly Cloudy,210,2013-04-28 16:53:00
10:53 AM,55.9,35.1,45,30.05,10.0,SW,12.7,-,N/A,,Mostly Cloudy,230,2013-04-28 17:53:00
11:53 AM,57.9,34.0,41,30.04,10.0,SW,16.1,21.9,N/A,,Mostly Cloudy,220,2013-04-28 18:53:00
12:53 PM,60.1,28.0,30,30.03,10.0,WSW,18.4,29.9,N/A,,Mostly Cloudy,250,2013-04-28 19:53:00
1:53 PM,62.1,28.0,28,30.01,10.0,SW,24.2,33.4,N/A,,Scattered Clouds,220,2013-04-28 20:53:00
2:53 PM,60.1,28.9,31,29.99,10.0,WSW,12.7,26.5,N/A,,Mostly Cloudy,240,2013-04-28 21:53:00
3:53 PM,61.0,28.0,29,29.96,10.0,SW,21.9,28.8,N/A,,Mostly Cloudy,230,2013-04-28 22:53:00
4:53 PM,61.0,28.9,30,29.94,10.0,SW,23.0,31.1,N/A,,Mostly Cloudy,220,2013-04-28 23:53:00
5:53 PM,60.1,25.0,26,29.92,10.0,WSW,15.0,27.6,N/A,,Clear,250,2013-04-29 00:53:00
6:53 PM,60.1,30.0,32,29.89,10.0,WSW,17.3,24.2,N/A,,Clear,240,2013-04-29 01:53:00
7:53 PM,59.0,30.9,35,29.87,10.0,SW,11.5,20.7,N/A,,Mostly Cloudy,230,2013-04-29 02:53:00
8:53 PM,57.0,26.1,30,29.86,10.0,WSW,17.3,26.5,N/A,,Clear,250,2013-04-29 03:53:00
9:53 PM,55.9,26.1,32,29.86,10.0,WSW,17.3,24.2,N/A,,Mostly Cloudy,240,2013-04-29 04:53:00
10:53 PM,54.0,24.1,31,29.85,10.0,WSW,16.1,28.8,N/A,,Overcast,240,2013-04-29 05:53:00
11:53 PM,52.0,25.0,35,29.84,10.0,SW,16.1,23.0,N/A,,Overcast,230,2013-04-29 06:53:00